Location: Molalla
(45.1473°N, 122.5770°W)
Time: 05:46:33
(UTC-07:00)

OTV 5 (USA 277) - Visible Passes

Search period start: 21 October 2019 00:00
Search period end: 31 October 2019 00:00
Orbit: 310 x 324 km, 54.5° (Epoch: 17 October)

Date Brightness Start Highest point End Pass type
(mag) Time Alt. Az. Time Alt. Az. Time Alt. Az.
21 Oct ? 05:54:26 16° S 05:54:26 16° S 05:55:12 10° SSE visible
28 Oct ? 19:10:57 10° S 19:13:01 19° SE 19:13:13 19° SE visible
29 Oct ? 19:24:45 10° SW 19:27:25 50° SE 19:27:41 48° ESE visible
30 Oct ? 19:39:15 10° WSW 19:41:57 60° NW 19:42:01 59° NNW visible
